GFSGL_sfc_rhum_336.txt.gz
RH
45 47 46 50 47 47 50 53 54 56 57 58 60 62 64 64 62 64 66 66 65 64 65 66 64 65 63 72 77 69 68 69 72 62 60 62 64 65 58 62 65 66 73
42 44 47 48 46 46 47 47 49 50 54 54 54 55 56 57 59 61 63 56 61 65 63 66 61 53 66 64 70 70 70 66 70 70 62 70 71 69 58 64 53 46 55
39 43 45 48 48 48 48 47 44 43 44 46 48 52 53 54 55 58 58 58 59 60 60 62 58 66 64 66 70 67 66 60 64 70 70 74 78 78 70 69 75 73 55
37 39 46 48 51 52 50 45 45 44 43 44 45 46 51 52 52 54 55 59 60 58 61 62 60 62 62 66 66 66 63 73 75 74 73 75 83 80 84 83 86 82 74
36 39 44 51 53 50 48 49 50 50 47 46 45 45 47 49 48 56 60 65 68 69 68 63 63 66 65 64 59 70 73 82 84 85 84 80 92 93 93 93 90 87 92
37 38 43 47 48 50 50 52 56 54 53 51 50 50 52 48 58 68 70 66 65 67 67 64 66 68 69 69 71 73 71 82 84 92 86 89 82 91 94 93 94 96 97
36 37 40 43 44 49 50 55 55 58 60 58 58 60 63 65 68 72 72 77 78 80 80 76 71 58 71 70 66 69 72 74 74 81 89 86 88 82 91 100 100 99 94
38 37 37 40 43 48 53 55 58 62 66 68 68 68 70 68 72 72 69 78 79 80 78 75 79 77 77 77 80 79 76 75 74 70 80 83 81 84 92 93 96 100 97
38 37 37 39 48 53 58 60 66 69 72 71 70 71 74 74 72 75 75 78 78 78 72 73 74 77 72 72 85 90 89 87 72 74 76 79 78 78 82 92 99 99 100
37 40 40 48 51 57 60 67 70 71 68 69 69 73 73 72 74 71 76 81 84 78 76 69 74 74 74 76 87 93 97 95 93 92 91 89 85 88 81 90 94 98 98
45 46 50 54 57 57 64 69 72 74 73 78 75 76 73 72 76 70 72 82 82 84 81 78 78 80 77 77 78 94 95 87 85 93 94 95 96 96 95 94 95 97 98
49 52 57 58 53 58 67 73 73 76 80 81 77 74 72 70 68 68 65 67 72 82 78 74 79 79 79 77 78 77 69 69 78 74 75 85 86 87 89 87 92 94 94
54 61 60 58 60 60 67 74 78 77 80 76 73 73 73 70 70 67 69 71 73 83 80 79 75 71 70 73 73 69 70 82 85 90 76 68 70 74 64 83 82 92 95
61 63 62 63 62 62 61 67 74 77 78 72 71 73 78 76 78 85 80 86 74 77 75 80 70 67 69 68 69 71 74 79 80 81 81 62 59 66 69 80 90 90 98
59 60 61 62 62 63 64 73 71 73 71 74 78 80 81 82 86 82 82 86 91 81 78 83 81 78 77 76 75 75 75 75 78 77 66 66 68 69 75 78 85 89 98
58 60 63 64 67 70 73 73 75 75 75 76 77 80 76 72 71 72 73 74 75 74 86 90 86 80 78 78 77 80 81 75 79 74 71 75 78 79 80 78 84 88 97
62 58 63 66 69 75 76 76 78 82 81 76 77 78 79 76 74 74 74 74 73 73 90 89 83 78 77 78 80 84 86 80 76 82 78 76 77 81 83 91 87 91 97
59 69 68 74 76 79 77 78 78 77 79 82 81 81 79 78 76 75 75 76 84 73 90 88 79 79 79 82 84 84 82 82 86 83 79 81 77 81 89 91 96 95 96
63 70 72 78 81 79 80 78 77 76 77 79 80 87 82 78 76 74 74 91 90 85 78 78 76 77 79 82 83 87 86 78 84 81 80 80 80 82 92 90 95 98 91
68 72 76 80 83 84 83 82 80 78 78 78 79 82 86 83 83 80 83 92 87 78 76 77 77 78 82 85 80 86 89 88 88 83 89 81 83 87 90 90 92 94 90
83 81 77 82 83 82 82 82 81 81 79 82 81 76 72 79 82 82 80 79 77 77 76 77 81 83 85 82 80 84 88 84 84 85 88 90 89 92 87 90 93 91 91
86 88 85 86 86 84 84 81 81 80 81 82 85 77 76 85 85 84 82 79 76 74 74 77 82 84 87 80 75 70 81 84 84 87 94 93 95 93 90 92 94 93 91
85 85 86 86 85 80 84 85 87 85 86 87 86 80 76 82 84 81 78 77 78 78 76 78 80 85 84 83 71 74 84 81 81 87 94 96 98 91 85 91 92 93 92
86 84 84 86 86 86 86 88 89 84 84 84 81 77 78 78 78 78 77 78 80 79 79 81 82 83 84 70 69 73 74 75 77 90 97 96 96 96 95 96 96 95 94
88 84 84 85 87 91 90 88 87 86 83 80 78 76 77 76 77 78 79 80 83 83 81 83 86 83 78 75 70 68 72 81 83 85 88 96 97 97 97 97 96 97 97
90 86 86 90 91 90 90 89 88 86 85 80 78 80 80 80 79 79 80 81 84 86 84 87 86 81 79 76 65 70 79 82 83 85 88 96 97 97 97 97 97 97 95

GFSGL_sfc_rhum_339.txt.gz
RH
52 55 57 61 63 63 65 64 63 62 62 63 64 66 67 68 68 70 73 73 74 74 74 76 71 74 75 82 84 77 78 77 77 65 61 62 72 73 67 68 69 70 76
47 52 52 55 57 56 55 54 55 56 58 60 60 62 63 65 68 70 71 65 70 73 72 75 69 59 76 72 78 74 78 71 76 72 64 68 79 78 75 74 62 53 65
46 49 53 53 54 53 51 51 51 54 54 54 56 59 60 61 61 63 64 65 67 68 68 71 66 73 72 73 81 78 78 69 75 77 74 72 82 86 84 83 81 83 62
42 45 50 52 52 54 52 54 54 49 49 50 50 51 55 57 58 60 59 63 66 65 68 70 69 71 70 71 77 76 74 83 82 80 79 77 84 88 91 91 89 92 78
39 43 44 47 54 56 59 57 52 54 54 52 52 51 52 52 49 56 60 65 69 72 73 72 71 74 72 70 70 80 84 88 93 95 89 91 94 94 94 94 94 88 91
36 38 39 50 54 61 59 55 58 61 59 58 56 56 57 51 63 73 73 69 67 71 75 74 75 72 74 70 72 74 79 93 92 95 88 93 93 94 94 95 94 96 99
34 34 39 44 52 58 56 57 61 62 62 62 63 63 67 70 73 75 76 77 80 82 84 85 80 66 77 80 76 74 75 72 76 93 95 95 96 94 94 100 100 99 97
35 33 35 44 48 55 57 60 63 64 66 70 72 71 76 72 78 76 71 78 82 83 84 86 89 86 85 86 88 88 88 86 81 74 86 86 92 92 94 91 95 99 98
34 34 35 41 46 54 59 64 65 70 75 75 73 74 75 75 78 76 73 81 81 84 80 82 82 85 76 78 85 88 91 92 80 78 79 81 78 80 85 93 98 100 99
30 35 36 42 43 51 62 67 72 76 72 73 72 76 76 79 77 72 76 81 86 85 85 81 79 86 75 77 91 94 98 95 95 94 92 89 85 90 78 92 97 99 98
31 40 45 45 49 56 67 76 77 77 77 80 77 80 79 78 78 76 73 79 82 86 86 84 80 78 76 74 76 93 94 89 88 88 89 91 87 89 94 94 91 90 94
51 49 48 55 50 60 70 78 77 80 83 84 82 79 77 77 75 76 73 70 73 88 85 86 91 76 69 68 75 73 68 75 88 91 93 92 92 93 92 90 83 84 88
52 53 56 59 60 67 74 79 81 83 86 83 78 79 78 75 78 71 71 70 69 85 86 80 74 69 71 79 71 67 72 84 87 89 90 89 88 84 81 82 84 90 91
56 63 63 62 69 70 70 76 81 85 85 78 78 80 82 83 85 88 85 87 78 82 80 88 75 72 67 68 70 74 74 80 82 84 85 83 79 82 85 88 92 92 94
58 62 64 68 70 74 73 77 75 78 77 78 81 82 86 86 84 85 84 88 93 85 82 90 88 86 80 80 78 80 83 82 82 85 85 86 86 86 87 89 90 93 97
62 67 70 73 76 75 77 79 82 80 78 77 79 77 78 74 77 75 72 73 74 73 89 94 94 88 83 82 83 87 87 80 85 84 88 90 86 86 83 83 86 81 86
64 70 71 70 75 81 81 80 78 84 81 78 77 77 80 75 77 75 73 73 72 74 94 95 94 90 83 85 88 89 88 87 85 90 92 91 87 85 84 91 90 90 89
70 72 70 77 78 83 82 82 83 82 84 84 82 81 81 81 79 78 76 75 91 80 89 92 90 85 83 85 89 90 91 92 92 92 94 92 93 89 91 92 84 86 97
68 71 72 80 84 83 85 85 84 83 84 84 87 87 86 82 82 77 75 92 93 91 90 84 81 82 82 84 87 89 90 94 88 93 83 93 92 92 94 95 88 83 83
69 72 75 80 88 88 88 87 87 86 86 86 86 87 89 91 91 87 85 89 94 94 91 83 80 82 84 87 88 89 91 93 95 80 83 87 95 92 95 95 93 96 95
78 80 81 86 88 89 90 89 87 88 88 88 85 81 80 87 88 87 84 86 85 84 82 83 85 86 87 88 90 89 78 76 76 71 83 86 90 93 97 97 94 88 90
81 83 84 88 91 90 90 88 89 87 86 87 88 82 76 86 84 84 85 84 85 83 80 82 83 87 89 89 89 88 84 72 71 76 84 85 87 90 97 91 88 86 82
86 86 88 91 90 85 90 90 91 89 88 90 90 88 83 88 88 86 85 84 83 85 82 83 83 87 87 88 87 88 86 80 78 80 83 87 89 88 91 95 94 94 93
87 87 88 92 92 92 89 87 87 89 88 88 89 86 85 86 84 81 80 83 85 85 85 85 85 85 86 86 86 83 82 76 76 81 82 91 92 91 92 96 95 94 96
89 90 92 94 93 92 90 89 92 91 88 86 87 86 87 83 83 81 84 87 87 87 86 87 88 86 82 82 85 81 81 80 77 82 83 86 92 95 96 97 96 97 97
92 89 90 91 93 94 93 92 90 89 89 86 87 87 85 85 88 86 86 86 88 88 86 90 89 85 85 85 82 81 79 76 79 80 82 87 94 96 97 97 97 97 97

GFSGL_sfc_rhum_342.txt.gz
RH
52 53 57 60 63 67 69 70 70 69 67 66 65 66 68 68 70 73 75 76 78 79 80 81 80 81 82 88 92 88 86 89 86 71 72 74 82 82 74 76 75 74 73
48 53 54 58 65 67 64 65 66 63 63 62 63 65 67 68 70 73 73 71 74 75 75 79 78 66 82 84 88 87 86 82 86 79 71 74 83 81 84 84 68 61 72
51 52 56 60 62 59 58 59 57 57 57 59 62 64 64 65 66 68 69 68 70 72 73 75 74 78 82 85 89 90 89 76 87 87 82 80 90 92 90 88 86 85 72
48 50 52 52 52 52 52 56 55 56 58 56 55 56 60 59 60 62 63 66 68 68 71 73 75 77 80 82 81 85 82 92 93 94 88 87 93 92 94 96 92 94 87
45 47 46 48 52 54 58 58 58 60 55 55 56 56 57 56 52 58 61 65 68 70 72 72 74 75 72 75 82 92 92 94 96 96 94 96 94 96 95 95 97 94 91
42 42 41 51 52 56 57 61 63 61 61 63 61 60 60 54 64 75 73 70 70 72 79 79 80 77 79 73 73 73 83 96 97 97 95 97 95 96 96 97 97 98 99
37 36 40 46 49 54 57 64 63 64 68 64 64 66 66 69 71 78 77 82 81 84 84 85 83 72 82 87 82 78 80 75 74 92 97 97 97 95 96 100 100 100 98
38 35 37 42 46 52 61 58 65 68 68 69 71 74 76 73 75 77 69 78 83 84 85 88 90 91 88 89 92 91 88 90 89 87 94 94 94 94 95 94 97 99 99
36 36 37 39 44 57 58 58 67 70 74 76 76 77 79 76 75 75 76 80 82 82 83 86 88 91 79 76 89 91 93 94 81 80 81 78 71 70 76 96 99 95 95
33 34 36 40 42 53 52 64 70 74 73 78 77 80 76 76 76 74 78 82 82 81 85 82 76 86 76 76 91 95 98 95 95 95 92 84 83 86 77 94 96 95 95
31 38 40 43 44 46 63 74 75 77 78 82 78 82 82 80 80 78 79 82 78 84 88 87 86 79 77 70 68 92 94 89 82 90 93 92 90 91 90 91 89 94 91
40 43 44 45 43 54 57 74 78 82 85 86 85 84 83 80 80 80 81 74 76 88 90 92 93 75 68 70 78 76 70 76 88 89 89 92 92 90 89 89 87 88 90
52 50 52 52 48 56 59 72 82 85 85 85 84 84 79 79 84 82 80 76 73 90 91 83 72 70 72 77 66 67 68 82 85 88 91 91 90 89 89 90 89 91 93
55 57 60 57 66 68 64 69 74 81 86 83 85 83 84 86 87 92 91 86 74 82 79 90 78 74 66 69 72 76 79 87 86 88 90 92 89 91 93 92 95 90 94
61 67 66 63 64 72 71 75 72 78 73 79 81 80 86 89 88 86 88 91 94 87 85 93 91 89 84 83 82 83 87 85 84 88 92 94 94 95 92 91 94 92 87
68 72 72 73 77 73 75 86 81 81 82 80 80 80 83 74 79 82 78 78 77 74 90 95 94 93 91 87 87 89 90 81 86 88 92 94 96 96 92 91 93 95 86
68 76 75 75 73 77 78 76 86 91 84 83 82 78 76 82 84 82 77 77 76 74 94 94 95 95 92 88 89 91 88 89 90 94 94 95 96 96 91 94 85 82 77
74 76 73 75 75 80 78 82 81 84 90 91 84 83 82 82 84 83 79 78 91 85 92 92 92 92 90 89 89 91 90 93 94 94 96 96 96 97 96 90 92 90 90
78 84 85 87 88 84 86 87 85 84 86 86 92 89 86 85 84 80 79 92 92 93 94 94 91 89 89 88 88 89 91 92 92 94 94 93 90 96 88 85 89 88 83
80 80 82 84 87 88 88 87 90 89 89 89 91 92 95 93 96 96 94 94 95 96 96 95 90 87 88 88 90 91 92 93 90 93 78 77 83 91 88 86 87 96 89
85 84 80 84 84 84 85 85 88 90 92 92 89 82 82 91 92 92 90 88 87 90 92 91 89 88 89 90 91 92 93 90 90 87 77 80 81 91 87 92 93 87 91
80 84 83 83 89 90 92 91 92 92 91 89 89 84 84 91 89 90 88 85 86 88 90 89 88 89 89 90 89 91 92 91 87 80 78 78 74 79 90 91 90 92 89
82 84 87 92 91 87 93 94 93 91 90 88 87 88 86 91 91 88 86 87 89 90 89 89 89 89 89 90 89 90 91 90 88 87 84 83 85 88 83 86 89 91 88
81 82 84 92 93 95 93 93 92 88 87 89 88 88 86 84 85 84 84 87 88 87 88 90 90 89 89 88 89 89 90 88 88 88 80 85 87 90 90 87 90 92 94
87 87 89 92 93 92 91 89 89 88 90 88 87 87 86 85 85 85 87 87 90 89 89 91 92 90 86 86 86 87 87 85 86 81 84 86 87 87 92 94 95 97 93
88 87 91 91 90 90 90 91 92 91 89 87 87 87 88 90 91 91 91 92 93 92 90 92 90 84 84 85 81 82 85 85 83 80 76 86 86 88 90 95 95 96 96

GFSGL_sfc_rhum_348.txt.gz
RH
50 50 50 55 57 61 59 58 60 67 69 72 74 76 75 74 75 78 80 79 82 82 84 86 84 87 90 94 96 97 97 97 98 87 88 86 88 87 81 84 84 85 84
48 51 51 58 62 60 57 59 66 64 70 69 72 72 71 72 74 76 76 73 78 78 78 82 80 74 88 90 94 94 96 97 97 95 92 93 90 87 90 91 79 72 85
53 53 59 58 60 57 56 60 68 66 68 71 70 70 69 70 73 75 73 73 76 76 74 77 74 80 84 89 91 93 95 87 98 99 97 95 95 94 93 91 91 92 80
51 53 53 53 54 52 55 62 63 65 66 68 68 67 69 69 70 70 72 74 74 72 73 75 75 79 81 85 87 90 91 96 97 98 98 98 97 94 96 97 96 96 91
50 52 49 50 55 58 63 62 62 66 60 59 62 67 69 68 62 68 69 70 71 71 73 75 78 78 73 80 89 95 96 97 98 99 98 98 97 97 97 96 96 93 94
48 48 46 56 60 60 60 63 66 64 63 61 62 62 66 58 66 73 69 70 69 70 73 78 82 75 78 73 74 75 87 97 98 98 97 98 95 97 97 97 99 95 92
47 45 48 50 54 57 57 63 61 60 61 60 61 64 64 68 71 75 76 68 72 77 82 85 81 74 80 88 79 77 80 74 75 93 97 96 96 94 98 100 100 96 96
47 44 45 48 49 50 58 58 55 57 60 58 60 63 67 66 74 76 81 81 86 87 86 85 85 86 87 90 92 89 88 90 90 91 96 96 94 95 95 96 96 96 96
47 44 43 44 45 50 58 55 54 60 62 59 58 66 66 68 77 79 86 91 90 87 86 87 89 89 81 78 91 92 93 93 82 79 76 70 70 68 72 89 96 96 94
43 43 40 45 44 50 52 53 54 56 52 55 61 64 66 65 80 82 84 87 89 89 86 87 79 88 80 79 93 93 94 92 94 87 86 80 79 79 70 89 94 96 98
43 46 49 50 49 46 51 57 59 59 60 67 64 68 69 70 79 84 84 82 79 86 84 88 89 76 78 77 72 92 91 92 84 89 89 89 88 88 90 92 92 95 97
50 53 54 55 47 48 59 69 71 66 70 70 72 81 77 84 77 84 85 76 78 78 84 88 90 81 76 69 72 77 77 81 88 87 87 89 90 91 92 94 92 94 96
56 55 56 57 58 58 62 75 75 72 69 70 72 72 80 87 88 81 86 82 78 81 88 86 85 77 68 71 72 74 71 84 88 87 88 90 92 94 94 93 91 92 93
59 59 61 62 66 68 67 72 70 76 72 68 72 72 76 84 82 94 91 90 83 86 85 90 83 79 79 81 81 79 83 89 89 88 90 93 94 94 95 95 96 96 87
62 64 66 69 72 75 74 76 68 71 65 70 68 66 77 77 76 77 89 96 94 91 94 95 94 91 90 88 88 88 90 92 90 90 93 94 93 95 96 95 96 97 95
60 62 70 76 82 83 86 91 88 82 78 77 74 67 77 68 76 83 89 90 88 84 93 95 95 94 91 90 88 88 90 84 92 90 93 95 95 96 97 96 94 84 87
67 65 72 81 86 91 93 91 93 95 88 83 81 79 74 79 83 88 90 89 85 86 93 95 94 94 93 93 93 91 88 88 89 91 94 95 96 97 93 95 76 77 76
73 77 77 83 90 93 93 93 94 93 92 96 88 83 84 86 88 90 90 88 92 91 94 94 94 92 94 94 94 92 91 92 93 92 94 95 96 95 94 86 72 76 84
75 79 86 91 93 92 94 94 92 93 92 95 97 92 90 90 91 90 88 91 94 96 95 94 92 91 92 91 90 91 91 91 91 92 94 94 94 95 87 83 81 76 76
80 80 85 92 94 95 94 94 95 93 92 93 90 92 96 94 96 96 96 93 92 93 93 93 93 94 94 94 92 91 93 92 94 96 96 94 94 90 87 84 79 81 84
83 88 87 94 93 93 92 90 89 89 88 88 90 90 87 88 92 94 95 93 92 93 94 93 95 95 96 95 93 92 92 91 92 93 94 94 94 92 85 80 77 80 83
84 88 94 91 94 94 92 88 88 85 84 87 94 92 89 94 94 94 95 95 94 93 87 90 94 94 94 92 91 90 91 91 92 93 94 93 93 89 90 82 82 80 80
90 91 93 94 93 88 92 91 89 86 86 85 86 93 95 95 95 94 93 93 89 87 87 91 93 94 94 93 92 91 91 90 89 91 92 93 94 86 81 80 77 81 81
92 91 92 94 96 95 95 93 93 88 87 87 86 93 95 92 92 91 90 90 89 87 89 94 93 91 90 92 93 92 93 92 92 91 88 89 89 85 85 86 86 84 85
94 95 94 95 95 96 95 95 95 92 89 88 90 92 95 94 92 91 90 89 87 90 91 94 94 90 87 87 89 89 89 87 92 88 94 90 88 86 88 88 89 91 89
96 95 96 96 96 95 93 92 93 92 94 92 93 92 88 88 88 91 91 92 93 94 94 94 92 89 89 90 89 86 86 87 91 88 93 95 94 94 92 92 94 95 94